Flag for Germany Weather past 2 weeks in Backnang, Baden-Württemberg, Germany

Now
70 °F

Sunny.


Feels Like: 77 °F
Forecast: 43 / 72 °F
Wind: 2 mph from East

Location: Oehringen


UV Index: 3 (Moderate)

Visibility: 22 mi


Pressure: 30.06 "Hg

Humidity: 34%

Dew point: 41 °F

Location of BacknangLocation

Historic Weather in Backnang

°F

Backnang temperature yesterday

Maximum temperature yesterday: 66 °F (at 6:00 PM)
Minimum temperature yesterday: 43 °F (at 7:00 AM)
Average temperature yesterday: 55 °F

Past Weeks' High & Low Weather Summary

 TemperatureHumidityPressure
High70 °F (Apr 23, 2:00 PM)98% (Apr 19, 4:00 AM)30.42 "Hg (Apr 19, 4:00 AM)
Low32 °F (Apr 16, 7:00 AM)24% (Apr 17, 4:00 PM)29.61 "Hg (Apr 21, 2:00 PM)
Average51 °F65%30.04 "Hg
* Reported Apr 8 2:00 PM — Apr 23 2:00 PM, Backnang, Weather by CustomWeather, © 2014

Note: Actual official high and low records may vary slightly from our data, if they occured in-between our weather recording intervals... More about our weather records

Advertising

Historic Weather Conditions — Data for Previous 24 hours

 ConditionsComfort  
Time TempWeatherWind HumidityBarometerVisibility
2:00 PM
Apr 23
70 °FSunny.2 mph35%30.06 "Hg19 mi
1:00 PM67 °FSunny.2 mph44%30.08 "Hg37 mi
12:00 PM67 °FSunny.1 mph46%30.09 "Hg25 mi
11:00 AM65 °FScattered clouds.2 mph51%30.09 "Hg22 mi
10:00 AM60 °FSunny.1 mph62%30.10 "Hg15 mi
9:00 AM53 °FSunny.1 mph72%30.11 "Hg12 mi
8:00 AM47 °FSunny.1 mph84%30.12 "Hg7 mi
7:00 AM44 °FSunny.1 mph90%30.11 "Hg6 mi
6:00 AM44 °FClear.1 mph91%30.10 "Hg8 mi
5:00 AM44 °FPassing clouds.1 mph90%30.09 "Hg9 mi
4:00 AM44 °FPassing clouds.1 mph90%30.08 "Hg9 mi
3:00 AM44 °FClear.1 mph89%30.07 "Hg10 mi
2:00 AM46 °FClear.1 mph85%30.07 "Hg12 mi
1:00 AM47 °FClear.1 mph86%30.05 "Hg17 mi
12:00 AM49 °FClear.1 mph80%30.03 "Hg16 mi
11:00 PM
Apr 22
51 °FClear.1 mph79%30.01 "Hg16 mi
10:00 PM54 °FClear.1 mph72%30.00 "Hg22 mi
9:00 PM59 °FClear.No wind58%29.96 "Hg25 mi
8:00 PM63 °FSunny.1 mph48%29.94 "Hg43 mi
7:00 PM64 °FSunny.2 mph47%29.92 "Hg37 mi
6:00 PM66 °FPassing clouds.2 mph46%29.91 "Hg37 mi
5:00 PM65 °FSunny.2 mph44%29.90 "Hg40 mi
4:00 PM64 °FPassing clouds.2 mph50%29.90 "Hg43 mi
3:00 PM61 °FOvercast.2 mph57%29.91 "Hg37 mi
Weather by CustomWeather, © 2014

See weather overview